CW3077 Weather Reports


time (UTC)temp
F
wind
direction
speed
knots
gust
knots
rain 1hr
in
rain 24hr
in
rain mn
in
humidity
%
barometer
mb
20260509224516 88 158 0.9 2.6 0.00 0.00 0.00 51 1009.3
20260509224016 88 158 1.7 5.2 0.00 0.00 0.00 51 1009.3
20260509223516 88 135 0.9 2.6 0.00 0.00 0.00 51 1009.3
20260509223016 88 113 1.7 4.3 0.00 0.00 0.00 50 1009.3
20260509222516 88 158 0.9 3.5 0.00 0.00 0.00 50 1009.1
20260509222016 88 158 0.9 3.5 0.00 0.00 0.00 53 1009.2
20260509221516 89 158 0.9 4.3 0.00 0.00 0.00 51 1009.4
20260509221036 88 158 0.9 2.6 0.00 0.00 0.00 52 1009.3
20260509220516 88 158 0.9 2.6 0.00 0.00 0.00 52 1009.3
20260509220016 88 0.0 2.6 0.00 0.00 0.00 54 1009.4
20260509215516 88 0.0 0.9 0.00 0.00 0.00 53 1009.4
20260509215016 88 0.0 1.7 0.00 0.00 0.00 53 1009.3
20260509214516 88 23 0.9 2.6 0.00 0.00 0.00 52 1009.5
20260509214016 88 0.0 1.7 0.00 0.00 0.00 53 1009.5
20260509213536 89 23 0.9 1.7 0.00 0.00 0.00 50 1009.7
20260509213016 88 0.0 1.7 0.00 0.00 0.00 53 1009.7
20260509212536 88 23 2.6 5.2 0.00 0.00 0.00 52 1009.7
20260509212016 88 68 1.7 7.0 0.00 0.00 0.00 52 1009.8
20260509211516 88 68 2.6 5.2 0.00 0.00 0.00 51 1009.9
20260509211016 89 90 2.6 6.1 0.00 0.00 0.00 50 1010.0
20260509210516 89 90 1.7 4.3 0.00 0.00 0.00 52 1010.2
20260509210016 88 113 0.9 4.3 0.00 0.00 0.00 52 1010.2
20260509205516 89 113 0.9 4.3 0.00 0.00 0.00 50 1010.3
20260509205016 88 113 1.7 6.1 0.00 0.00 0.00 51 1010.4
20260509204516 87 180 0.9 3.5 0.00 0.00 0.00 53 1010.5
20260509204016 87 180 1.7 4.3 0.00 0.00 0.00 52 1010.5
20260509203516 87 180 1.7 4.3 0.00 0.00 0.00 51 1010.5
20260509203036 87 180 2.6 7.8 0.00 0.00 0.00 49 1010.6
20260509202516 87 135 3.5 8.7 0.00 0.00 0.00 46 1010.7
20260509202016 86 158 3.5 7.8 0.00 0.00 0.00 50 1010.7
20260509201516 87 158 3.5 9.6 0.00 0.00 0.00 48 1010.9
20260509201015 89 90 2.6 9.6 0.00 0.00 0.00 50 1011.2
20260509200515 90 90 1.7 4.3 0.00 0.00 0.00 52 1011.5
20260509200015 90 68 1.7 4.3 0.00 0.00 0.00 50 1011.4
20260509195516 91 68 2.6 6.1 0.00 0.00 0.00 50 1011.4
20260509195015 90 45 0.9 3.5 0.00 0.00 0.00 53 1011.4
20260509194516 89 23 2.6 4.3 0.00 0.00 0.00 53 1011.3
20260509194015 89 23 1.7 7.0 0.00 0.00 0.00 57 1011.3
20260509193516 88 23 3.5 7.0 0.00 0.00 0.00 52 1011.3
20260509193016 88 23 3.5 9.6 0.00 0.00 0.00 54 1011.4
20260509192516 88 338 3.5 9.6 0.00 0.00 0.00 56 1011.4
20260509192016 87 0 3.5 8.7 0.00 0.00 0.00 58 1011.3
20260509191536 88 23 4.3 8.7 0.00 0.00 0.00 56 1011.4
20260509191036 87 23 3.5 8.7 0.00 0.00 0.00 59 1011.3
20260509190515 87 23 4.3 9.6 0.00 0.00 0.00 59 1011.4
20260509190056 87 23 3.5 7.8 0.00 0.00 0.00 63 1011.5
20260509185516 86 23 4.3 9.6 0.00 0.00 0.00 65 1011.6
20260509185016 86 23 5.2 8.7 0.00 0.00 0.00 65 1011.8
20260509184555 85 23 4.3 9.6 0.00 0.00 0.00 66 1011.8
20260509184016 85 338 3.5 8.7 0.00 0.00 0.00 69 1011.8
20260509183516 84 45 3.5 8.7 0.00 0.00 0.00 71 1011.9
20260509183016 83 23 5.2 9.6 0.00 0.00 0.00 70 1011.9
20260509182515 83 23 3.5 8.7 0.00 0.00 0.00 73 1012.0
20260509182016 83 0 3.5 7.8 0.00 0.00 0.00 72 1012.0
20260509181515 83 0 3.5 7.8 0.00 0.00 0.00 70 1012.1
20260509181015 84 0 3.5 7.8 0.00 0.00 0.00 69 1012.2
20260509180516 84 293 1.7 4.3 0.00 0.00 0.00 69 1012.3
20260509180016 85 315 0.9 5.2 0.00 0.00 0.00 66 1012.5
20260509175516 85 315 2.6 6.1 0.00 0.00 0.00 67 1012.4
20260509175015 85 315 1.7 6.1 0.00 0.00 0.00 70 1012.4
20260509174515 84 315 0.9 3.5 0.00 0.00 0.00 72 1012.5
20260509174015 83 248 1.7 5.2 0.00 0.00 0.00 72 1012.4
20260509173536 82 315 1.7 5.2 0.00 0.00 0.00 75 1012.3
20260509173036 81 293 0.9 4.3 0.00 0.00 0.00 75 1012.3
20260509172515 82 270 0.9 3.5 0.00 0.00 0.00 74 1012.4
20260509172016 81 248 0.9 3.5 0.00 0.00 0.00 77 1012.6
20260509171515 80 248 0.9 3.5 0.00 0.00 0.00 75 1012.5
20260509171015 80 248 1.7 4.3 0.00 0.00 0.00 74 1012.7
20260509170515 81 248 1.7 5.2 0.00 0.00 0.00 74 1012.9
20260509170015 81 248 2.6 5.2 0.00 0.00 0.00 73 1012.8
20260509165536 82 270 1.7 6.1 0.00 0.00 0.00 72 1012.9
20260509165016 83 225 2.6 7.0 0.00 0.00 0.00 74 1013.0
20260509164515 82 225 2.6 7.8 0.00 0.00 0.00 73 1012.7
20260509164016 83 225 2.6 8.7 0.00 0.00 0.00 72 1012.7
20260509163515 83 225 3.5 8.7 0.00 0.00 0.00 72 1012.6
20260509163035 83 180 2.6 7.0 0.00 0.00 0.00 74 1012.8
20260509162535 82 203 3.5 7.8 0.00 0.00 0.00 74 1012.8
20260509162015 81 225 3.5 7.8 0.00 0.00 0.00 75 1012.8
20260509161535 80 248 2.6 8.7 0.00 0.00 0.00 77 1012.7
20260509161015 80 225 3.5 7.0 0.00 0.00 0.00 79 1012.6
20260509160515 80 225 2.6 7.8 0.00 0.00 0.00 80 1012.7
20260509160015 80 203 2.6 7.0 0.00 0.00 0.00 78 1012.7
20260509155535 81 180 1.7 7.0 0.00 0.00 0.00 78 1012.7
20260509155015 81 180 1.7 7.8 0.00 0.00 0.00 78 1012.7
20260509154515 81 203 2.6 7.8 0.00 0.00 0.00 78 1012.5
20260509154015 82 203 2.6 7.8 0.00 0.00 0.00 78 1012.4
20260509153515 81 225 4.3 8.7 0.00 0.00 0.00 77 1012.3
20260509153036 81 225 3.5 11.3 0.00 0.00 0.00 78 1012.0
20260509152515 81 203 3.5 11.3 0.00 0.00 0.00 78 1012.0
20260509152015 81 225 1.7 7.0 0.00 0.00 0.00 78 1012.0
20260509151515 81 225 1.7 6.1 0.00 0.00 0.00 78 1012.0
20260509151015 81 180 2.6 6.1 0.00 0.00 0.00 77 1012.0
20260509150515 81 158 2.6 5.2 0.00 0.00 0.00 78 1011.9
20260509150015 81 158 1.7 8.7 0.00 0.00 0.00 79 1011.9
20260509145515 81 180 2.6 8.7 0.00 0.00 0.00 79 1011.9
20260509145015 80 203 2.6 8.7 0.00 0.00 0.00 79 1011.8
20260509144515 80 203 2.6 8.7 0.00 0.00 0.00 79 1011.7
20260509144015 80 203 2.6 8.7 0.00 0.00 0.00 79 1011.7
20260509143515 79 203 3.5 8.7 0.00 0.00 0.00 81 1011.6
20260509143015 79 203 2.6 7.0 0.00 0.00 0.00 83 1011.6
20260509142515 78 225 1.7 6.1 0.00 0.00 0.00 84 1011.6
20260509142015 78 203 1.7 5.2 0.00 0.00 0.00 84 1011.5
20260509141515 77 203 1.7 6.1 0.00 0.00 0.00 85 1011.4
20260509141015 77 180 1.7 3.5 0.00 0.00 0.00 86 1011.4
20260509140555 76 225 1.7 5.2 0.00 0.00 0.00 86 1011.4
20260509140015 76 180 0.9 5.2 0.00 0.00 0.00 82 1011.4
20260509135515 75 225 0.9 6.1 0.00 0.00 0.00 77 1011.2
20260509135015 75 203 1.7 5.2 0.00 0.00 0.00 73 1011.3
20260509134515 74 180 3.5 7.8 0.00 0.00 0.00 72 1011.1
20260509134015 74 180 1.7 7.8 0.00 0.00 0.00 72 1011.1
20260509133515 73 180 3.5 10.4 0.00 0.00 0.00 72 1011.3
20260509133015 73 180 3.5 10.4 0.00 0.00 0.00 72 1011.4
20260509132535 73 158 3.5 7.8 0.00 0.00 0.00 72 1011.5
20260509132017 72 158 3.5 9.6 0.00 0.00 0.00 72 1011.3
20260509131517 72 158 2.6 9.6 0.00 0.00 0.00 72 1011.2
20260509131017 72 180 3.5 8.7 0.00 0.00 0.00 72 1011.2
20260509130517 72 203 2.6 6.1 0.00 0.00 0.00 72 1011.3
20260509130017 72 180 1.7 5.2 0.00 0.00 0.00 72 1011.4
20260509125537 72 225 1.7 4.3 0.00 0.00 0.00 73 1011.5
20260509125037 71 248 0.9 2.6 0.00 0.00 0.00 73 1011.6
20260509124517 71 248 0.9 3.5 0.00 0.00 0.00 73 1011.6
20260509124017 71 0.0 1.7 0.00 0.00 0.00 73 1011.8
20260509123517 71 0.0 0.9 0.00 0.00 0.00 73 1011.8
20260509123017 71 0.0 1.7 0.00 0.00 0.00 73 1011.8
20260509122517 71 23 0.9 2.6 0.00 0.00 0.00 73 1011.6
20260509122017 71 0.0 0.0 0.00 0.00 0.00 73 1011.8
20260509121517 71 0.0 0.0 0.00 0.00 0.00 73 1011.7
20260509121017 71 0.0 1.7 0.00 0.00 0.00 73 1011.8
20260509120516 71 0.0 0.0 0.00 0.00 0.00 73 1012.0
20260509120017 71 0.0 0.0 0.00 0.00 0.00 73 1012.1
20260509115516 71 0.0 0.9 0.00 0.00 0.00 73 1012.2
20260509115057 71 23 0.9 1.7 0.00 0.00 0.00 73 1012.1
20260509114517 71 0.0 0.0 0.00 0.00 0.00 73 1012.1
20260509114057 71 0.0 0.0 0.00 0.00 0.00 73 1012.2
20260509113537 71 0.0 0.0 0.00 0.00 0.00 73 1012.5
20260509113017 71 0.0 0.9 0.00 0.00 0.00 73 1012.4
20260509112537 71 0.0 0.9 0.00 0.00 0.00 73 1012.5
20260509112017 71 23 0.9 1.7 0.00 0.00 0.00 74 1012.8
20260509111517 71 23 0.9 2.6 0.00 0.00 0.00 74 1012.7
20260509111017 71 23 1.7 3.5 0.00 0.00 0.00 74 1013.0
20260509110516 71 23 1.7 4.3 0.00 0.00 0.00 74 1013.2
20260509110017 71 23 0.9 2.6 0.00 0.00 0.00 74 1012.9
20260509105517 71 23 0.9 1.7 0.00 0.00 0.00 74 1012.9
20260509105037 71 23 0.9 2.6 0.00 0.00 0.00 74 1013.0
20260509104516 71 23 0.9 2.6 0.00 0.00 0.00 74 1013.1
20260509104017 71 0.0 2.6 0.00 0.00 0.00 74 1013.1
20260509103516 71 0.0 0.0 0.00 0.00 0.00 74 1013.2
20260509103017 71 0.0 0.0 0.00 0.00 0.00 74 1013.0
20260509102516 71 0.0 0.9 0.00 0.00 0.00 74 1013.0
20260509102017 71 0.0 1.7 0.00 0.00 0.00 74 1012.8
20260509101537 71 23 1.7 2.6 0.00 0.00 0.00 74 1012.8
20260509101017 71 23 2.6 4.3 0.00 0.00 0.00 75 1012.8
20260509100516 71 23 3.5 6.1 0.00 0.00 0.00 75 1012.7
20260509100017 71 23 1.7 5.2 0.00 0.00 0.00 75 1012.7
20260509095516 71 23 0.9 2.6 0.00 0.00 0.00 75 1012.5
20260509095016 71 113 1.7 4.3 0.00 0.00 0.00 75 1012.4
20260509094516 71 135 1.7 3.5 0.00 0.00 0.00 75 1012.3
20260509094037 71 135 0.9 2.6 0.00 0.00 0.00 75 1012.1
20260509093516 71 0.0 0.0 0.00 0.00 0.00 76 1011.8
20260509093016 71 0.0 2.6 0.00 0.00 0.00 76 1011.7
20260509092537 71 135 0.9 2.6 0.00 0.00 0.00 76 1011.6
20260509092016 71 135 0.9 2.6 0.00 0.00 0.00 76 1011.5
20260509091517 71 0.0 0.9 0.00 0.00 0.00 76 1011.3
20260509091016 71 0.0 0.9 0.00 0.00 0.00 77 1011.4
20260509090517 71 0.0 0.9 0.00 0.00 0.00 77 1011.4
20260509090017 71 0.0 1.7 0.00 0.00 0.00 77 1011.5
20260509085517 71 0.0 0.0 0.00 0.00 0.00 77 1011.4
20260509085016 71 0.0 0.0 0.00 0.00 0.00 77 1011.6
20260509084517 71 0.0 1.7 0.00 0.00 0.00 78 1011.7
20260509084016 71 0.0 0.0 0.00 0.00 0.00 78 1011.8
20260509083518 71 0.0 0.0 0.00 0.00 0.00 78 1012.1
20260509083017 71 0.0 1.7 0.00 0.00 0.00 79 1012.2
20260509082516 71 0.0 0.9 0.00 0.00 0.00 79 1012.1
20260509082016 71 0.0 1.7 0.00 0.00 0.00 80 1011.9
20260509081516 72 0.0 0.0 0.00 0.00 0.00 80 1011.9
20260509081016 72 0.0 0.9 0.00 0.00 0.00 81 1011.8
20260509080516 72 0.0 0.0 0.00 0.00 0.00 81 1011.8
20260509080016 72 0.0 1.7 0.00 0.00 0.00 82 1012.1
20260509075517 72 0.0 1.7 0.00 0.00 0.00 82 1012.2
20260509075036 72 113 0.9 3.5 0.00 0.00 0.00 82 1012.3
20260509074516 72 135 0.9 2.6 0.00 0.00 0.00 83 1012.1
20260509074016 72 135 0.9 2.6 0.00 0.00 0.00 83 1012.3
20260509073516 72 135 0.9 2.6 0.00 0.00 0.00 83 1012.5
20260509073016 72 135 0.9 2.6 0.00 0.00 0.00 84 1012.6
20260509072516 72 158 0.9 2.6 0.00 0.00 0.00 84 1012.5
20260509072036 72 0.0 1.7 0.00 0.00 0.00 84 1012.7
20260509071516 72 158 0.9 2.6 0.00 0.00 0.00 84 1012.7
20260509071017 72 158 0.9 1.7 0.00 0.00 0.00 85 1012.7
20260509070516 73 158 0.9 1.7 0.00 0.00 0.00 85 1012.7
20260509070016 73 158 0.9 3.5 0.00 0.00 0.00 85 1012.6
20260509065516 73 0.0 1.7 0.00 0.00 0.00 85 1012.5
20260509065016 73 0.0 1.7 0.00 0.00 0.00 85 1012.5
20260509064516 73 0.0 0.0 0.00 0.00 0.00 85 1012.5
20260509064016 73 0.0 0.0 0.00 0.00 0.00 85 1012.6
20260509063516 73 0.0 0.0 0.00 0.00 0.00 86 1012.6
20260509063016 73 0.0 0.0 0.00 0.00 0.00 86 1012.6
20260509062516 73 0.0 0.0 0.00 0.00 0.00 86 1012.5
20260509062016 73 158 0.9 2.6 0.00 0.00 0.00 86 1012.4
20260509061516 73 0.0 2.6 0.00 0.00 0.00 86 1012.2
20260509061017 73 158 0.9 3.5 0.00 0.00 0.00 86 1012.3
20260509060557 73 158 1.7 5.2 0.00 0.00 0.00 86 1012.3
20260509060016 73 158 3.5 8.7 0.00 0.00 0.00 88 1012.1
20260509055516 73 180 2.6 8.7 0.00 0.00 0.00 88 1012.1
20260509055016 73 158 2.6 7.8 0.00 0.00 0.00 88 1012.2
20260509054516 73 135 2.6 8.7 0.00 0.00 0.00 88 1011.8
20260509054016 73 135 2.6 8.7 0.00 0.00 0.00 88 1011.5
20260509053516 73 135 2.6 9.6 0.00 0.00 0.00 88 1011.3
20260509053016 73 158 3.5 7.8 0.00 0.00 0.00 88 1011.2
20260509052516 73 158 1.7 5.2 0.00 0.00 0.00 88 1011.0
20260509052016 73 158 1.7 7.0 0.00 0.00 0.00 88 1011.0
20260509051536 73 135 1.7 4.3 0.00 0.00 0.00 88 1011.0
20260509051016 73 135 2.6 7.8 0.00 0.00 0.00 88 1010.8
20260509050516 73 135 2.6 7.8 0.00 0.00 0.00 88 1010.7
20260509050016 73 135 2.6 6.1 0.00 0.00 0.00 88 1010.7
20260509045517 73 135 2.6 7.8 0.00 0.00 0.00 88 1010.7
20260509045017 73 158 1.7 4.3 0.00 0.00 0.00 88 1010.9
20260509044537 73 135 1.7 6.1 0.00 0.00 0.00 88 1011.0
20260509044037 73 135 0.9 3.5 0.00 0.00 0.00 88 1011.1
20260509043517 73 135 0.9 3.5 0.00 0.00 0.00 86 1011.3
20260509043017 73 135 0.9 3.5 0.00 0.00 0.00 86 1011.2
20260509042517 73 135 0.9 3.5 0.00 0.00 0.00 86 1011.2
20260509042017 73 158 2.6 7.8 0.00 0.00 0.00 86 1011.3
20260509041536 73 158 1.7 5.2 0.00 0.00 0.00 86 1011.3
20260509041017 73 158 0.9 3.5 0.00 0.00 0.00 88 1011.3
20260509040517 73 180 0.9 6.1 0.00 0.00 0.00 88 1011.4
20260509040037 73 135 0.9 3.5 0.00 0.00 0.00 88 1011.4
20260509035516 73 135 0.9 3.5 0.00 0.00 0.00 88 1011.4
20260509035016 73 135 0.9 4.3 0.00 0.00 0.00 88 1011.4
20260509034517 73 158 0.9 3.5 0.00 0.00 0.00 88 1011.3
20260509034016 73 158 0.9 2.6 0.00 0.00 0.00 88 1011.3
20260509033517 73 158 0.9 2.6 0.00 0.00 0.00 86 1011.3
20260509033017 73 158 0.9 3.5 0.00 0.00 0.00 86 1011.1
20260509032537 73 158 0.9 3.5 0.00 0.00 0.00 86 1010.8
20260509032037 73 135 1.7 4.3 0.00 0.00 0.00 86 1010.7
20260509031516 73 135 1.7 7.0 0.00 0.00 0.00 86 1010.9
20260509031017 73 135 0.9 3.5 0.00 0.00 0.00 86 1010.9
20260509030517 73 135 1.7 6.1 0.00 0.00 0.00 86 1010.9
20260509030016 73 158 1.7 5.2 0.00 0.00 0.00 86 1010.9
20260509025516 73 158 1.7 5.2 0.00 0.00 0.00 86 1010.8
20260509025017 73 135 1.7 6.1 0.00 0.00 0.00 86 1010.9
20260509024536 73 135 1.7 4.3 0.00 0.00 0.00 86 1010.8
20260509024017 73 135 1.7 4.3 0.00 0.00 0.00 85 1010.8
20260509023517 73 158 1.7 6.1 0.00 0.00 0.00 85 1010.8
20260509023017 73 135 0.9 4.3 0.00 0.00 0.00 85 1010.9
20260509022517 74 135 0.9 3.5 0.00 0.00 0.00 85 1010.9
20260509022016 74 135 0.9 3.5 0.00 0.00 0.00 84 1010.6
20260509021517 74 135 1.7 5.2 0.00 0.00 0.00 84 1010.6
20260509021016 74 135 2.6 7.0 0.00 0.00 0.00 84 1010.5
20260509020517 74 135 2.6 7.8 0.00 0.00 0.00 84 1010.4
20260509020016 74 135 0.9 6.1 0.00 0.00 0.00 84 1010.4
20260509015516 75 135 1.7 6.1 0.00 0.00 0.00 84 1010.2
20260509015017 75 135 2.6 6.1 0.00 0.00 0.00 83 1010.3
20260509014517 75 135 1.7 5.2 0.00 0.00 0.00 83 1010.3
20260509014036 75 135 1.7 4.3 0.00 0.00 0.00 83 1010.3
20260509013536 75 113 1.7 3.5 0.00 0.00 0.00 82 1010.2
20260509013036 76 113 2.6 7.0 0.00 0.00 0.00 82 1010.1
20260509012516 76 113 2.6 7.8 0.00 0.00 0.00 81 1010.0
20260509012016 76 90 2.6 7.8 0.00 0.00 0.00 81 1009.9
20260509011516 76 90 1.7 5.2 0.00 0.00 0.00 81 1010.0
20260509011016 76 90 1.7 3.5 0.00 0.00 0.00 81 1010.1
20260509010516 76 90 2.6 5.2 0.00 0.00 0.00 80 1010.1
20260509010016 76 90 2.6 7.0 0.00 0.00 0.00 80 1010.1
20260509005536 76 90 3.5 7.8 0.00 0.00 0.00 80 1010.1
20260509005016 76 90 2.6 5.2 0.00 0.00 0.00 80 1010.1
20260509004516 76 90 4.3 8.7 0.00 0.00 0.00 79 1010.1
20260509004016 77 90 3.5 9.6 0.00 0.00 0.00 79 1010.1
20260509003517 77 90 3.5 7.0 0.00 0.00 0.00 79 1010.1
20260509003036 77 90 3.5 8.7 0.00 0.00 0.00 78 1010.1
20260509002516 77 90 3.5 7.8 0.00 0.00 0.00 78 1010.0
20260509002036 77 90 3.5 7.8 0.00 0.00 0.00 78 1010.2
20260509001516 77 90 3.5 7.8 0.00 0.00 0.00 78 1010.2
20260509001036 77 90 2.6 7.0 0.00 0.00 0.00 78 1010.1
20260509000516 77 113 2.6 7.0 0.00 0.00 0.00 78 1010.2
20260509000016 77 135 0.9 5.2 0.00 0.00 0.00 77 1010.2
20260508235516 77 135 2.6 7.0 0.00 0.00 0.00 77 1010.1
20260508235016 77 113 3.5 6.1 0.00 0.00 0.00 77 1010.3
20260508234516 77 90 3.5 7.0 0.00 0.00 0.00 77 1010.3
20260508234016 77 113 3.5 7.0 0.00 0.00 0.00 77 1010.2
20260508233516 77 90 4.3 9.6 0.00 0.00 0.00 77 1010.2
20260508233017 77 90 4.3 10.4 0.00 0.00 0.00 77 1010.2
20260508232516 77 113 2.6 7.0 0.00 0.00 0.00 77 1010.4
20260508232016 77 90 3.5 9.6 0.00 0.00 0.00 77 1010.3
20260508231516 77 113 2.6 7.0 0.00 0.00 0.00 77 1010.2
20260508231016 77 90 3.5 7.8 0.00 0.00 0.00 78 1010.1
20260508230536 77 90 3.5 8.7 0.00 0.00 0.00 78 1010.3
20260508230016 77 90 4.3 7.8 0.00 0.00 0.00 78 1010.3
20260508225516 77 90 3.5 8.7 0.00 0.00 0.00 77 1010.3
20260508225016 77 90 3.5 7.0 0.00 0.00 0.00 77 1010.3